Temperature
18 18 18 18 18 18 18 19 19 19 19 19 18 17 17 16 15 15 14 14 14 14 13 13 13 13 13 13 13 13 13 13 13 13 13 13 13 13 13 13 13 13 13 13
17 17 17 17 17 17 18 18 18 18 18 18 17 17 16 16 15 14 14 14 13 13 13 13 13 13 13 13 13 12 12 12 12 12 12 12 12 13 13 12 12 12 12 12
18 17 17 17 18 17 17 18 18 18 18 17 17 16 16 15 14 14 14 13 13 13 13 12 12 12 12 12 12 12 12 12 12 12 12 12 12 12 12 12 12 12 12 12
17 17 16 18 17 17 17 17 17 17 17 16 16 15 14 14 13 13 13 13 12 12 12 12 12 12 12 12 12 12 12 12 12 12 12 12 12 12 12 12 12 12 11 11
16 16 17 17 16 16 16 17 17 16 16 15 14 14 14 13 13 12 12 12 12 12 12 12 11 11 11 11 11 11 11 11 11 11 11 11 11 11 11 11 11 11 11 11
16 15 16 17 16 15 16 16 16 15 15 14 14 15 15 13 12 12 12 12 11 11 11 11 11 11 11 11 11 11 11 11 11 11 11 11 11 11 11 11 11 11 11 11
15 15 16 16 15 15 16 16 15 14 14 13 14 14 13 12 12 11 11 11 11 11 10 10 10 10 10 10 10 10 10 10 10 10 10 10 10 10 10 10 10 10 10 10
15 15 16 15 15 15 16 15 14 14 13 13 12 12 11 11 11 11 11 10 10 10 10 10 10 10 10 10 10 10 10 10 10 10 10 10 10 10 10 10 10 10 10 10
15 15 15 14 14 14 13 14 13 13 12 12 11 11 11 10 10 10 10 10 10 10 10 10 9 9 9 9 9 9 9 9 9 9 9 9 9 9 9 9 9 9 9 9
14 15 14 13 12 12 12 12 12 12 11 11 11 11 10 10 10 10 10 10 9 9 9 9 9 9 9 9 9 9 8 9 9 9 9 9 9 9 9 9 9 9 9 9
13 14 13 12 12 12 12 12 11 11 11 10 10 10 10 10 10 9 9 9 9 9 9 8 8 9 9 9 8 8 8 8 8 8 8 8 8 8 8 8 8 8 8 8
14 14 13 13 12 11 11 11 11 10 10 10 10 10 9 9 9 9 9 9 9 8 8 8 8 8 8 8 8 8 8 8 8 8 8 8 8 8 8 8 8 8 8 8
12 11 11 11 11 11 10 10 10 10 10 10 9 9 9 9 9 9 9 8 8 8 8 8 8 8 8 8 8 8 7 7 7 7 7 7 7 7 7 8 8 8 8 8
10 10 10 10 10 10 10 10 10 9 9 9 9 9 9 9 9 8 8 8 8 8 8 7 7 7 7 7 7 7 7 7 7 7 7 7 7 7 7 7 7 7 7 7
10 10 10 10 10 10 10 9 9 9 9 9 9 9 8 8 8 8 8 8 8 8 7 7 7 7 7 7 7 7 7 7 7 7 7 7 7 6 6 6 6 6 7 7
10 9 9 9 10 9 9 9 9 9 9 9 9 8 8 8 8 8 8 8 8 7 7 7 7 7 7 7 7 7 7 7 7 6 6 6 6 6 6 6 6 6 6 6
9 9 9 9 9 9 9 9 9 9 8 8 8 8 8 8 8 8 8 7 7 7 7 7 7 7 7 7 6 6 6 6 6 6 6 6 6 6 6 6 6 6 6 6
9 9 9 9 8 8 8 8 8 8 8 8 8 7 7 7 7 7 7 7 7 7 7 7 7 7 6 6 6 6 6 6 6 6 6 5 5 5 5 5 5 5 5 5
8 8 8 8 8 8 8 8 8 8 7 7 7 7 7 7 7 7 7 6 6 6 6 6 6 6 6 6 6 6 5 5 5 5 5 5 5 5 5 5 5 5 5 5
8 8 8 8 8 7 7 7 7 7 7 7 7 7 6 6 6 6 6 6 6 6 6 6 6 6 6 6 6 5 5 5 5 5 5 5 5 5 5 4 5 5 5 5
7 7 7 7 7 7 7 7 7 7 7 7 6 6 6 6 6 6 6 6 6 6 6 6 6 5 5 5 5 5 5 5 5 4 4 4 4 4 4 4 4 4 4 4
7 7 7 7 7 7 7 7 7 6 6 6 6 6 6 6 6 5 5 5 5 5 5 5 5 5 5 5 5 5 5 4 4 4 4 4 4 4 4 4 4 4 4 4
7 7 7 7 6 6 6 6 6 6 6 6 6 6 6 5 5 5 5 5 5 5 5 5 5 5 5 5 5 4 4 4 4 4 4 4 4 4 4 4 4 4 4 4
7 7 6 6 6 6 6 6 6 6 6 6 6 5 5 5 5 5 5 5 5 5 4 4 4 4 4 4 4 4 4 4 4 3 3 3 3 3 3 3 3 3 3 4
6 6 6 6 5 5 5 5 5 5 5 5 5 5 5 5 5 5 5 5 4 4 4 4 4 4 4 4 4 4 4 4 3 3 3 3 3 3 3 3 3 3 3 3
6 5 5 5 5 5 5 5 5 5 5 5 5 4 4 4 4 4 4 4 4 4 4 4 4 3 3 3 3 3 3 3 3 3 3 3 3 3 3 3 3 3 3 3
5 5 5 5 5 5 5 4 4 4 4 4 4 4 4 4 4 4 4 4 4 4 4 3 3 3 3 3 3 3 3 3 3 3 3 3 3 3 3 3 3 3 3 3
Wind_Speed
6 5 6 8 8 9 11 11 12 11 10 9 7 5 4 3 3 2 3 3 2 2 2 2 2 2 2 2 2 2 3 3 3 3 3 3 3 3 4 4 5 5 5 6
7 5 6 9 10 10 11 11 12 11 11 7 5 4 4 4 3 4 4 4 4 3 3 3 3 3 3 2 2 2 3 3 3 4 4 4 4 4 4 4 4 4 5 5
6 5 7 9 9 10 9 9 9 11 8 4 5 5 5 4 4 5 5 4 5 4 4 3 3 3 3 3 2 2 3 3 3 3 4 4 4 4 4 4 4 5 5 5
5 5 7 2 1 3 7 8 8 7 6 5 5 5 4 4 4 5 5 4 5 4 4 3 3 3 2 2 3 3 3 3 3 4 4 4 4 5 5 5 5 5 5 5
4 6 8 5 3 3 5 6 5 6 6 5 4 5 4 2 3 4 5 4 4 4 4 3 3 3 3 3 3 4 4 4 4 5 5 5 5 5 5 5 5 6 5 6
6 6 6 2 1 2 5 6 2 3 3 3 4 6 4 2 3 4 4 4 3 4 4 3 3 3 3 3 4 4 4 5 5 5 5 5 6 6 5 5 6 6 6 6
9 8 6 1 1 3 5 2 1 2 3 4 5 5 4 4 3 3 4 3 3 4 4 3 3 4 4 4 4 5 5 5 5 5 6 6 5 5 5 5 5 6 6 6
7 8 6 3 3 4 3 2 2 3 4 5 5 5 4 4 4 4 4 4 4 4 4 3 3 4 5 5 5 5 5 5 5 6 5 5 5 5 6 6 6 6 6 6
6 5 3 3 4 5 5 6 5 5 5 5 6 6 6 5 5 4 4 4 4 4 5 4 4 4 5 5 5 5 5 5 5 6 5 5 6 6 5 6 6 6 6 6
7 8 7 7 7 7 7 7 6 6 6 6 6 6 6 6 5 5 5 5 4 5 5 5 4 4 5 5 5 5 6 6 5 5 5 5 5 5 5 6 6 7 7 7
10 9 9 8 7 7 7 7 7 7 6 6 6 6 7 6 6 5 5 5 4 5 5 6 5 5 5 5 5 6 6 6 6 5 6 5 5 5 6 6 6 7 7 7
9 8 7 8 7 8 8 8 7 6 7 7 6 7 7 6 6 6 6 5 5 6 6 6 6 6 6 5 5 6 6 6 5 5 5 5 5 5 5 6 6 7 8 8
9 8 8 9 9 9 8 8 7 7 7 7 6 6 6 6 6 6 6 6 6 6 6 6 6 6 6 6 6 6 6 6 6 6 6 6 6 6 6 5 5 6 7 8
8 8 9 9 8 8 8 7 6 6 6 6 5 6 6 6 6 6 6 6 6 6 6 6 6 6 6 6 6 7 7 7 6 6 6 7 7 7 6 6 6 5 6 7
8 8 9 9 8 8 7 6 6 6 6 5 5 5 6 6 6 6 6 5 5 6 6 6 6 6 6 6 6 7 7 6 6 6 6 7 6 7 6 7 7 6 5 5
8 8 8 8 8 8 7 7 7 6 6 6 6 6 6 6 6 6 5 5 5 6 6 6 7 6 6 6 6 6 6 7 8 7 6 6 6 6 6 6 7 6 6 6
6 7 7 7 8 8 8 8 8 7 7 7 6 6 6 6 6 6 5 5 6 6 6 6 7 6 6 6 6 6 6 6 8 7 6 6 7 7 6 7 7 7 7 6
8 8 8 8 7 7 7 7 7 7 7 6 6 6 6 6 6 6 6 5 6 6 6 6 7 7 6 6 6 6 6 6 6 6 6 6 7 7 7 7 7 8 7 7
4 5 6 6 6 6 7 7 7 6 6 5 6 6 7 7 7 6 5 5 6 7 7 6 7 7 6 7 7 6 6 6 6 6 6 7 7 7 6 7 7 7 7 7
3 4 4 5 5 5 5 5 5 5 5 5 5 6 6 6 6 5 5 6 6 6 6 6 6 6 6 7 7 6 6 6 6 6 6 6 6 6 6 7 7 7 7 7
4 4 4 4 4 4 5 5 5 5 5 5 5 6 6 6 6 5 5 6 6 6 6 6 5 5 5 6 6 5 5 6 6 6 6 6 6 6 7 7 7 7 6 6
4 5 5 5 5 5 5 5 5 5 5 5 5 5 6 6 6 5 6 5 6 5 5 5 5 6 6 6 4 5 5 5 5 5 5 6 6 6 6 6 6 6 6 6
4 5 5 5 5 5 5 5 5 5 5 5 5 5 5 5 5 5 6 5 5 6 5 5 6 7 7 4 4 5 5 6 6 5 5 6 6 6 6 6 5 5 5 5
4 5 5 5 5 5 5 5 5 4 5 5 5 5 5 4 4 5 5 5 5 6 5 5 6 7 6 4 4 5 5 5 5 5 6 6 5 5 5 5 5 5 5 5
5 5 5 5 5 5 5 5 5 4 4 4 4 4 4 4 4 4 4 5 5 5 5 5 6 7 5 5 5 5 5 5 5 6 6 5 5 5 5 5 5 4 4 4
5 5 5 5 5 5 4 4 4 4 4 4 4 4 3 3 3 3 3 4 5 5 5 4 4 5 4 5 5 5 5 5 6 6 6 5 5 5 5 5 5 4 4 4
6 5 5 4 4 4 4 4 4 4 4 4 4 4 3 3 3 3 3 3 4 4 4 4 4 4 4 5 5 5 5 5 5 5 5 5 5 5 5 5 4 4 4 4
Wind_Direction
277 286 273 264 258 247 246 255 261 265 265 271 274 275 275 271 261 266 271 265 264 266 269 267 276 274 267 265 271 268 261 257 258 264 267 266 260 258 255 251 247 245 245 240
265 263 261 265 260 250 250 254 254 260 268 277 283 271 269 270 267 261 263 270 276 274 280 286 288 283 274 274 275 267 267 265 267 268 269 268 269 265 256 253 252 249 248 247
265 266 270 262 254 242 240 240 248 257 266 268 270 270 272 276 269 270 271 281 284 283 285 290 288 292 283 276 275 270 274 277 277 278 277 271 271 268 257 254 255 253 252 249
268 265 251 271 8 262 248 254 253 262 266 262 270 275 277 274 275 285 287 289 291 292 289 284 285 286 284 271 269 268 275 282 285 280 278 274 266 264 262 257 253 253 253 250
241 257 268 262 235 231 249 265 247 253 266 270 264 260 261 266 285 291 296 295 295 295 290 284 282 285 287 276 274 272 274 280 281 281 278 275 268 265 264 263 259 255 253 253
234 251 258 252 139 244 255 256 218 250 261 266 256 259 268 302 295 294 302 301 300 299 295 291 293 287 282 278 280 281 283 285 286 281 275 271 271 270 265 260 258 256 252 251
237 247 260 263 167 214 237 301 86 249 260 255 263 291 308 307 297 294 293 300 300 298 294 294 292 284 281 281 284 287 292 293 290 288 282 275 272 270 266 262 258 255 252 249
229 236 244 150 183 228 293 333 285 278 270 264 276 294 292 291 291 293 292 295 291 289 292 295 290 282 285 289 294 295 292 288 287 286 286 279 268 266 265 262 257 254 253 252
234 252 302 233 250 275 286 281 282 281 276 267 271 279 283 284 281 279 280 284 285 288 290 290 289 287 286 290 294 293 287 285 284 282 284 281 270 263 260 258 257 254 251 250
257 258 265 267 271 275 277 279 284 282 277 261 267 275 276 276 273 272 273 277 282 284 284 286 289 288 287 291 289 286 284 285 286 288 289 288 281 269 262 257 256 255 251 250
258 268 276 266 268 278 282 282 279 275 267 265 266 268 270 268 268 270 270 273 276 277 279 282 286 288 291 292 286 281 282 284 284 284 284 286 283 278 267 265 263 262 258 255
263 269 271 277 285 285 280 278 273 268 268 266 263 265 268 266 266 268 268 270 271 271 273 278 284 287 289 287 283 282 284 286 284 282 281 278 280 281 273 265 276 273 272 268
269 280 280 283 284 275 270 272 271 267 265 267 267 265 262 262 265 268 264 263 264 265 271 276 280 282 285 286 283 279 279 282 282 279 277 274 270 268 273 271 258 256 256 258
264 268 273 276 282 282 275 272 271 269 265 266 269 265 260 261 264 263 261 261 260 263 268 272 275 281 287 287 285 282 281 280 280 275 273 272 268 266 266 268 271 272 253 237
259 262 269 277 278 276 272 268 265 267 269 271 266 262 258 260 262 265 265 262 261 267 273 275 278 284 289 288 286 284 283 281 281 281 277 273 268 264 264 263 262 265 270 251
266 269 268 266 267 268 266 263 262 266 267 269 266 261 262 266 271 273 272 266 266 273 276 276 278 284 289 287 286 285 282 284 285 280 276 273 269 265 261 258 256 257 257 258
259 266 269 270 268 265 263 260 260 263 263 264 265 266 269 273 275 275 275 275 274 274 274 274 278 285 287 286 285 282 280 278 279 277 273 271 268 265 262 260 257 256 255 253
262 267 267 265 265 267 267 265 262 261 262 267 270 268 265 264 268 274 279 278 279 279 278 281 284 288 286 284 283 281 279 277 275 275 276 273 270 265 262 259 258 258 258 249
275 278 278 272 266 260 262 265 264 264 265 264 263 263 263 264 269 273 277 274 274 279 284 288 293 287 285 285 286 278 279 279 276 274 276 275 270 266 262 260 260 260 260 255
298 298 291 286 273 260 261 265 266 266 264 261 263 265 266 269 272 272 271 272 274 284 289 290 287 287 286 285 287 280 280 279 277 275 274 272 269 268 265 262 261 259 258 255
305 305 301 296 288 278 270 268 264 262 263 260 259 263 267 272 273 272 272 277 284 289 292 291 285 288 288 295 286 283 282 280 279 277 275 272 271 269 268 264 262 261 258 257
303 303 302 299 295 291 285 274 265 263 261 261 262 265 268 272 275 275 272 276 286 294 291 285 285 294 304 301 284 282 281 281 280 279 279 278 276 274 271 269 267 264 261 258
298 299 300 297 292 291 290 280 270 265 262 261 260 259 264 272 274 274 280 284 286 294 293 287 300 304 304 293 287 286 284 282 280 279 279 280 278 277 278 276 272 269 265 260
296 299 299 296 292 286 286 286 279 270 267 268 261 260 262 268 274 274 279 284 288 289 287 292 298 299 297 292 288 286 286 283 281 279 280 280 278 279 279 276 273 269 265 264
290 294 297 293 288 283 281 284 282 276 273 273 272 267 265 264 269 278 282 283 285 287 287 291 295 295 291 289 288 289 288 286 287 285 280 280 281 280 277 274 272 271 269 264
285 286 285 279 279 278 276 274 272 274 274 276 281 280 279 278 277 280 278 279 280 285 287 288 289 289 287 289 289 290 290 289 285 284 284 281 280 280 278 273 272 270 269 265
281 283 285 284 280 276 270 266 265 269 270 271 278 279 277 276 278 282 284 286 288 285 286 287 287 287 288 289 290 291 292 293 291 290 287 281 278 278 277 274 271 267 265 263
Height
1527 1527 1528 1527 1527 1527 1526 1522 1523 1519 1520 1520 1522 1525 1527 1528 1529 1529 1529 1529 1529 1529 1529 1528 1528 1528 1528 1528 1528 1528 1528 1528 1528 1529 1529 1529 1529 1529 1529 1529 1530 1530 1531 1531
1528 1528 1528 1527 1525 1524 1523 1522 1521 1521 1521 1520 1523 1524 1525 1526 1527 1527 1527 1527 1527 1527 1526 1526 1526 1525 1525 1525 1525 1525 1525 1525 1525 1525 1526 1525 1526 1526 1526 1526 1526 1527 1527 1527
1526 1526 1527 1524 1519 1519 1520 1519 1519 1518 1518 1520 1522 1522 1523 1524 1524 1525 1525 1525 1524 1524 1524 1523 1523 1523 1522 1522 1522 1522 1522 1522 1522 1522 1522 1522 1522 1522 1522 1522 1523 1523 1523 1523
1527 1527 1529 1518 1517 1517 1518 1517 1517 1517 1518 1520 1521 1522 1522 1522 1523 1523 1523 1522 1522 1521 1521 1521 1520 1520 1519 1519 1519 1519 1519 1519 1519 1519 1519 1519 1519 1519 1519 1519 1519 1519 1519 1519
1527 1526 1519 1516 1517 1518 1517 1515 1516 1516 1517 1518 1519 1519 1519 1520 1521 1521 1520 1520 1519 1519 1518 1518 1517 1517 1517 1516 1516 1516 1516 1515 1515 1515 1515 1515 1515 1515 1515 1515 1515 1515 1515 1515
1526 1527 1520 1513 1516 1517 1518 1514 1515 1515 1516 1517 1517 1515 1516 1518 1518 1518 1518 1517 1516 1516 1515 1515 1514 1514 1514 1513 1513 1512 1512 1512 1512 1511 1511 1511 1511 1511 1511 1510 1510 1510 1510 1510
1524 1523 1514 1513 1516 1518 1518 1513 1514 1515 1515 1516 1516 1516 1516 1516 1515 1515 1515 1514 1514 1513 1513 1512 1511 1511 1510 1510 1509 1509 1508 1508 1508 1507 1507 1507 1506 1506 1506 1506 1505 1505 1506 1506
1520 1520 1516 1514 1515 1515 1513 1513 1514 1514 1515 1515 1515 1514 1514 1513 1513 1512 1512 1511 1511 1511 1510 1509 1508 1508 1507 1506 1506 1505 1504 1504 1503 1503 1502 1502 1502 1501 1501 1501 1500 1500 1500 1501
1516 1514 1512 1513 1513 1514 1514 1513 1513 1513 1513 1513 1512 1512 1511 1511 1510 1509 1509 1508 1508 1507 1506 1506 1505 1504 1503 1503 1502 1501 1501 1500 1499 1498 1498 1497 1497 1496 1496 1496 1496 1495 1495 1495
1514 1510 1511 1512 1511 1511 1512 1511 1511 1511 1510 1510 1509 1509 1508 1507 1507 1506 1505 1505 1504 1504 1503 1502 1501 1501 1500 1499 1498 1498 1497 1496 1495 1494 1493 1493 1492 1491 1491 1490 1490 1490 1490 1490
1511 1510 1510 1508 1508 1509 1508 1508 1508 1507 1507 1507 1506 1506 1505 1504 1503 1503 1502 1501 1501 1500 1499 1498 1498 1497 1496 1496 1495 1494 1493 1492 1491 1490 1489 1488 1487 1486 1485 1485 1485 1485 1484 1485
1506 1506 1506 1505 1505 1505 1505 1505 1504 1504 1503 1504 1503 1502 1501 1500 1500 1499 1498 1498 1497 1496 1496 1495 1494 1493 1493 1492 1491 1490 1489 1488 1487 1486 1484 1483 1482 1481 1480 1480 1479 1479 1479 1479
1505 1504 1504 1503 1502 1502 1501 1501 1501 1500 1499 1499 1499 1498 1498 1497 1496 1495 1494 1494 1493 1492 1492 1491 1490 1490 1489 1488 1487 1486 1484 1483 1482 1481 1479 1478 1477 1476 1475 1474 1473 1472 1472 1472
1501 1501 1500 1499 1499 1498 1497 1497 1497 1496 1496 1495 1495 1494 1493 1492 1492 1491 1490 1490 1489 1488 1488 1487 1486 1485 1485 1484 1482 1481 1480 1478 1477 1476 1474 1473 1472 1471 1470 1469 1468 1467 1467 1467
1497 1498 1497 1496 1495 1495 1494 1493 1493 1492 1492 1491 1490 1490 1489 1488 1488 1487 1486 1486 1485 1484 1483 1482 1481 1481 1480 1479 1478 1476 1475 1473 1472 1471 1469 1468 1467 1466 1465 1464 1463 1462 1462 1462
1493 1493 1492 1492 1491 1491 1490 1490 1489 1488 1488 1487 1487 1486 1485 1485 1484 1483 1482 1481 1480 1479 1479 1478 1477 1476 1475 1474 1473 1471 1469 1468 1467 1465 1464 1462 1461 1460 1459 1459 1458 1457 1457 1456
1489 1488 1488 1487 1487 1486 1486 1486 1485 1484 1484 1483 1483 1482 1481 1480 1479 1479 1478 1477 1476 1475 1475 1474 1472 1472 1471 1470 1468 1466 1465 1463 1461 1460 1458 1457 1456 1455 1454 1453 1452 1451 1451 1451
1486 1485 1484 1484 1483 1482 1482 1482 1481 1481 1480 1479 1479 1478 1477 1476 1475 1474 1473 1473 1472 1471 1470 1469 1468 1467 1466 1464 1463 1461 1460 1458 1456 1454 1453 1451 1450 1449 1448 1447 1446 1445 1445 1445
1482 1481 1481 1480 1479 1478 1478 1477 1477 1476 1476 1475 1474 1474 1473 1472 1471 1470 1469 1469 1468 1466 1465 1464 1463 1462 1461 1459 1458 1456 1455 1453 1451 1449 1447 1445 1444 1443 1442 1441 1440 1439 1439 1439
1479 1478 1477 1476 1475 1475 1474 1474 1473 1472 1472 1471 1470 1470 1469 1468 1467 1466 1465 1464 1463 1462 1461 1459 1458 1457 1455 1454 1453 1451 1449 1447 1445 1443 1442 1440 1438 1437 1436 1435 1434 1433 1433 1432
1477 1476 1474 1473 1472 1471 1471 1470 1469 1468 1468 1467 1467 1466 1465 1464 1463 1462 1461 1460 1459 1458 1456 1454 1453 1452 1450 1449 1447 1446 1444 1442 1440 1438 1437 1435 1433 1432 1430 1429 1428 1427 1427 1426
1474 1473 1472 1471 1470 1469 1468 1467 1466 1465 1464 1463 1462 1462 1461 1460 1459 1458 1457 1456 1454 1453 1451 1450 1448 1447 1445 1444 1442 1440 1439 1437 1435 1433 1432 1430 1428 1426 1425 1423 1422 1421 1421 1420
1472 1471 1469 1468 1467 1466 1465 1464 1463 1461 1460 1459 1458 1457 1456 1455 1454 1453 1452 1451 1449 1448 1446 1445 1443 1442 1441 1439 1437 1435 1433 1432 1430 1428 1427 1425 1423 1421 1420 1418 1417 1415 1414 1414
1469 1468 1467 1465 1464 1463 1461 1460 1459 1458 1457 1456 1455 1454 1453 1451 1450 1449 1448 1446 1445 1443 1442 1440 1439 1437 1436 1434 1432 1430 1429 1427 1425 1423 1422 1420 1418 1416 1415 1413 1412 1410 1409 1409
1467 1465 1464 1462 1461 1459 1458 1457 1456 1454 1453 1452 1451 1450 1449 1448 1446 1445 1444 1442 1440 1439 1438 1436 1435 1433 1431 1429 1428 1426 1424 1422 1420 1419 1417 1415 1413 1411 1410 1409 1407 1406 1405 1405
1464 1462 1461 1460 1458 1457 1455 1454 1452 1451 1449 1448 1447 1446 1445 1444 1443 1441 1440 1438 1437 1435 1434 1432 1430 1428 1427 1425 1423 1421 1419 1417 1415 1414 1412 1410 1409 1407 1406 1404 1403 1402 1401 1401
1460 1459 1457 1456 1454 1453 1452 1450 1449 1447 1446 1445 1443 1442 1441 1440 1439 1438 1437 1435 1433 1431 1430 1428 1426 1424 1422 1421 1419 1417 1415 1413 1411 1409 1407 1406 1405 1403 1402 1400 1399 1398 1397 1397